Regional Weather Roundup
Issued by NWS

Home | Current Version | Previous Version | Graphics & Text | Print | Product List | Glossary On
Versions: 1 2 3 4 5 6 7 8 9 10 11 12 13 14 15 16 17 18 19 20 21 22 23 24 25 26 27 28 29 30 31 32 33 34 35 36 37 38 39 40 41 42 43 44 45 46 47 48 49 50
000
ASUS43 KLMK 212302
RWRKY
KENTUCKY REGIONAL WEATHER ROUNDUP
NATIONAL WEATHER SERVICE LOUISVILLE KY
700 PM EDT MON AUG 21 2017

NOTE "FAIR" INDICATES FEW OR NO CLOUDS BELOW 12,000 FEET
WITH NO SIGNIFICANT WEATHER AND/OR OBSTRUCTIONS TO VISIBILITY.

KYZ001>023-026-027-061>063-070>075-220000-
WESTERN AND SOUTH CENTRAL KENTUCKY

CITY           SKY/WX    TMP DP  RH WIND       PRES   REMARKS
PADUCAH        MOSUNNY   90  74  59 S3        30.04S HX  99
HENDERSON      SUNNY     88  74  63 S5        30.05S HX  96
OWENSBORO      SUNNY     91  71  51 S6        30.07R HX  97
HOPKINSVILLE   SUNNY     90  72  55 S7        30.08R HX  96
BOWLING GREEN  MOSUNNY   90  69  50 S5        30.08F HX  94
GLASGOW        SUNNY     89  65  44 S5        30.10S HX  91
$$

KYZ024-025-028>034-038-045-046-053-220000-
NORTH CENTRAL KENTUCKY

CITY           SKY/WX    TMP DP  RH WIND       PRES   REMARKS
LOUISVILLE/SDF CLOUDY    89  68  49 S7        30.08S HX  93
LOUISVILLE/LOU PTSUNNY   88  70  55 S7        30.09S HX  93
FORT KNOX      MOSUNNY   89  69  50 SW5       30.09R HX  93
$$

KYZ035>037-039>044-047>052-055>060-089>105-220000-
NORTHEAST KENTUCKY

CITY           SKY/WX    TMP DP  RH WIND       PRES   REMARKS
LEXINGTON      SUNNY     85  69  58 S6        30.13S
COVINGTON      CLOUDY    85  70  60 SW3       30.10F
FRANKFORT      PTSUNNY   87  65  47 SW5       30.10S
$$

KYZ054-064>069-076>088-106>120-220000-
SOUTHEAST KENTUCKY

CITY           SKY/WX    TMP DP  RH WIND       PRES   REMARKS
JACKSON        SUNNY     85  69  58 CALM      30.17R
LONDON         MOSUNNY   87  66  49 S5        30.15S
SOMERSET       NOT AVBL
MIDDLESBORO    SUNNY     86  70  59 SW3       30.16S HX  90
MONTICELLO     CLEAR     87  71  58 NE8       30.14F HX  93
$$





USA.gov is the U.S. government's official web portal to all federal, state and local government web resources and services.